EW4350 Weather Reports


time (UTC)temp
C
wind
direction
speed
KPH
gust
KPH
rain 1hr
cm
rain 24hr
cm
rain mn
cm
humidity
%
barometer
mb
20260505125004 18 14 8.0 24.1 0.00 0.00 0.00 68 1016.2
20260505124504 18 14 8.0 24.1 0.00 0.00 0.00 68 1016.2
20260505124004 18 14 8.0 19.3 0.00 0.00 0.00 68 1016.2
20260505123004 17 14 8.0 25.7 0.00 0.00 0.00 69 1016.2
20260505122504 17 14 8.0 22.5 0.00 0.00 0.00 70 1016.2
20260505122004 17 14 6.4 27.4 0.00 0.00 0.00 70 1016.1
20260505121504 17 14 4.8 27.4 0.00 0.00 0.00 71 1016.1
20260505115504 16 14 6.4 16.1 0.00 0.00 0.00 72 1016.0
20260505115004 16 14 6.4 16.1 0.00 0.00 0.00 73 1015.9
20260505114504 16 14 6.4 14.5 0.00 0.00 0.00 73 1015.9
20260505114004 16 14 6.4 17.7 0.00 0.00 0.00 74 1015.9
20260505113004 16 14 8.0 19.3 0.00 0.00 0.00 74 1015.8
20260505112503 16 14 8.0 19.3 0.00 0.00 0.00 75 1015.9
20260505112004 16 15 6.4 16.1 0.00 0.00 0.00 75 1015.9
20260505111504 16 15 6.4 17.7 0.00 0.00 0.00 75 1015.8
20260505111003 16 14 6.4 20.9 0.00 0.00 0.00 75 1015.8
20260505102004 15 14 4.8 12.9 0.00 0.00 0.00 75 1015.2
20260505101505 15 14 4.8 14.5 0.00 0.00 0.00 74 1015.1
20260505101004 15 14 4.8 14.5 0.00 0.00 0.00 74 1015.1
20260505100504 15 14 4.8 16.1 0.00 0.00 0.00 74 1015.0
20260505100004 16 14 6.4 16.1 0.00 0.00 0.00 74 1015.0
20260505095504 16 14 4.8 14.5 0.00 0.00 0.00 74 1014.9
20260505095004 16 14 4.8 14.5 0.00 0.00 0.00 73 1014.9
20260505094505 16 14 4.8 11.3 0.00 0.00 0.00 73 1014.8
20260505094004 16 14 6.4 14.5 0.00 0.00 0.00 72 1014.8
20260505093504 16 14 6.4 14.5 0.00 0.00 0.00 72 1014.7
20260505093004 16 14 4.8 14.5 0.00 0.00 0.00 72 1014.7
20260505092503 16 14 4.8 14.5 0.00 0.00 0.00 72 1014.6
20260505092004 16 14 4.8 12.9 0.00 0.00 0.00 71 1014.7
20260505091004 16 14 4.8 14.5 0.00 0.00 0.00 71 1014.6
20260505090504 16 14 4.8 12.9 0.00 0.00 0.00 70 1014.6
20260505090005 16 14 6.4 14.5 0.00 0.00 0.00 70 1014.6
20260505085504 16 14 6.4 20.9 0.00 0.00 0.00 70 1014.6
20260505085004 17 14 6.4 20.9 0.00 0.00 0.00 70 1014.6
20260505084504 17 14 6.4 16.1 0.00 0.00 0.00 69 1014.6
20260505084003 17 14 4.8 14.5 0.00 0.00 0.00 69 1014.6
20260505083504 17 14 6.4 16.1 0.00 0.00 0.00 69 1014.5
20260505083005 17 14 6.4 16.1 0.00 0.00 0.00 69 1014.6
20260505082504 17 14 6.4 20.9 0.00 0.00 0.00 68 1014.4
20260505082004 17 14 6.4 20.9 0.00 0.00 0.00 68 1014.4
20260505081504 17 14 8.0 19.3 0.00 0.00 0.00 68 1014.5
20260505081004 17 14 8.0 19.3 0.00 0.00 0.00 68 1014.5
20260505080504 17 14 6.4 20.9 0.00 0.00 0.00 68 1014.5
20260505080004 17 14 6.4 20.9 0.00 0.00 0.00 68 1014.4
20260505075504 17 14 6.4 20.9 0.00 0.00 0.00 68 1014.4
20260505075003 17 14 6.4 20.9 0.00 0.00 0.00 67 1014.4
20260505074504 17 14 6.4 19.3 0.00 0.00 0.00 67 1014.4
20260505074004 17 14 4.8 17.7 0.00 0.00 0.00 67 1014.3
20260505073504 17 14 6.4 17.7 0.00 0.00 0.00 67 1014.3
20260505072504 17 14 6.4 16.1 0.00 0.00 0.00 67 1014.2
20260505071504 17 14 6.4 16.1 0.00 0.00 0.00 67 1014.2
20260505071004 17 14 4.8 16.1 0.00 0.00 0.00 67 1014.2
20260505070504 17 14 4.8 16.1 0.00 0.00 0.00 66 1014.1
20260505070004 17 14 6.4 22.5 0.00 0.00 0.00 66 1014.0
20260505065503 17 14 6.4 22.5 0.00 0.00 0.00 66 1014.1
20260505065004 17 14 6.4 22.5 0.00 0.00 0.00 65 1014.1
20260505064504 17 14 6.4 17.7 0.00 0.00 0.00 65 1014.1
20260505064004 17 14 6.4 17.7 0.00 0.00 0.00 65 1014.2
20260505063004 18 14 6.4 16.1 0.00 0.00 0.00 65 1014.2
20260505062503 18 14 6.4 16.1 0.00 0.00 0.00 64 1014.2
20260505062004 18 14 6.4 17.7 0.00 0.00 0.00 64 1014.2
20260505061505 18 14 6.4 17.7 0.00 0.00 0.00 64 1014.2
20260505061003 18 14 6.4 17.7 0.00 0.00 0.00 64 1014.2
20260505060504 18 14 6.4 17.7 0.00 0.00 0.00 64 1014.2
20260505060004 18 14 6.4 14.5 0.00 0.00 0.00 64 1014.2
20260505055504 18 14 6.4 14.5 0.00 0.00 0.00 64 1014.2
20260505055004 18 14 8.0 17.7 0.00 0.00 0.00 64 1014.3
20260505054504 18 14 8.0 19.3 0.00 0.00 0.00 64 1014.3
20260505054003 18 14 6.4 24.1 0.00 0.00 0.00 64 1014.3
20260505053503 18 14 6.4 24.1 0.00 0.00 0.00 64 1014.5
20260505053004 18 14 8.0 19.3 0.00 0.00 0.00 64 1014.4
20260505052504 18 14 8.0 19.3 0.00 0.00 0.00 64 1014.4
20260505052004 18 14 6.4 17.7 0.00 0.00 0.00 63 1014.3
20260505051505 18 14 8.0 20.9 0.00 0.00 0.00 63 1014.3
20260505051004 18 14 9.7 20.9 0.00 0.00 0.00 63 1014.4
20260505050504 18 14 8.0 20.9 0.00 0.00 0.00 63 1014.5
20260505041504 18 14 8.0 20.9 0.00 0.00 0.00 63 1014.4
20260505041004 18 14 6.4 20.9 0.00 0.00 0.00 63 1014.4
20260505040005 19 14 9.7 27.4 0.00 0.00 0.00 63 1014.3
20260505035504 19 14 9.7 27.4 0.00 0.00 0.00 63 1014.2
20260505035004 19 14 8.0 19.3 0.00 0.00 0.00 63 1014.2
20260505034505 19 14 6.4 19.3 0.00 0.00 0.00 63 1014.3
20260505034004 19 14 8.0 22.5 0.00 0.00 0.00 63 1014.3
20260505033504 19 14 9.7 22.5 0.00 0.00 0.00 63 1014.2
20260505033004 19 14 8.0 22.5 0.00 0.00 0.00 62 1014.1
20260505032504 19 14 9.7 29.0 0.00 0.00 0.00 62 1014.2
20260505032003 19 14 9.7 29.0 0.00 0.00 0.00 63 1014.1
20260505031504 19 14 8.0 25.7 0.00 0.00 0.00 63 1014.1
20260505031004 19 14 9.7 25.7 0.00 0.00 0.00 63 1014.0
20260505030005 19 14 9.7 25.7 0.00 0.00 0.00 63 1014.0
20260505025504 20 14 11.3 24.1 0.00 0.00 0.00 63 1014.2
20260505025004 20 14 11.3 25.7 0.00 0.00 0.00 63 1014.1
20260505024004 20 14 8.0 22.5 0.00 0.00 0.00 64 1014.1
20260505023503 20 14 8.0 22.5 0.00 0.00 0.00 64 1014.0
20260505023004 20 14 9.7 29.0 0.00 0.00 0.00 64 1014.0
20260505022004 20 14 8.0 19.3 0.00 0.00 0.00 64 1014.1
20260505021004 20 14 9.7 22.5 0.00 0.00 0.00 64 1013.9
20260505020004 20 14 9.7 29.0 0.00 0.00 0.00 64 1014.1
20260505015504 20 14 9.7 29.0 0.00 0.00 0.00 63 1014.1
20260505015004 20 14 9.7 29.0 0.00 0.00 0.00 63 1014.0
20260505014504 20 14 9.7 22.5 0.00 0.00 0.00 63 1013.9
20260505013503 20 14 8.0 20.9 0.00 0.00 0.00 63 1013.8
20260505013004 20 14 9.7 24.1 0.00 0.00 0.00 62 1013.8
20260505012504 21 14 9.7 27.4 0.00 0.00 0.00 62 1013.8
20260505012004 21 14 9.7 27.4 0.00 0.00 0.00 62 1013.7
20260505011504 21 14 8.0 25.7 0.00 0.00 0.00 62 1013.7
20260505010504 21 14 9.7 24.1 0.00 0.00 0.00 61 1013.4
20260505010004 21 14 11.3 32.2 0.00 0.00 0.00 61 1013.3
20260505005504 21 14 9.7 32.2 0.00 0.00 0.00 61 1013.3
20260505005004 21 14 8.0 19.3 0.00 0.00 0.00 61 1013.3
20260505004004 21 14 9.7 27.4 0.00 0.00 0.00 60 1013.1
20260505003004 21 14 9.7 29.0 0.00 0.00 0.00 60 1013.0
20260505002504 21 14 9.7 24.1 0.00 0.00 0.00 59 1013.0
20260505002003 21 14 9.7 22.5 0.00 0.00 0.00 59 1012.9
20260505001504 22 14 9.7 30.6 0.00 0.00 0.00 58 1012.9
20260505000503 22 14 9.7 20.9 0.00 0.00 0.00 57 1012.7
20260505000004 22 14 8.0 20.9 0.00 0.00 0.00 56 1012.7
20260504235503 22 14 8.0 19.3 0.00 0.00 0.00 56 1012.6
20260504234504 22 17 8.0 33.8 0.00 0.00 0.00 54 1012.5
20260504234004 23 13 9.7 33.8 0.00 0.00 0.00 53 1012.4
20260504233503 23 13 11.3 30.6 0.00 0.00 0.00 52 1012.3
20260504233004 23 13 9.7 27.4 0.00 0.00 0.00 48 1012.3
20260504232503 24 14 8.0 27.4 0.00 0.00 0.00 43 1012.1
20260504231504 25 14 6.4 19.3 0.00 0.00 0.00 37 1012.1
20260504230503 25 14 9.7 20.9 0.00 0.00 0.00 37 1012.0
20260504230004 25 14 9.7 24.1 0.00 0.00 0.00 37 1011.9
20260504225004 25 203 8.0 35.4 0.00 0.00 0.00 36 1011.9
20260504224503 25 203 8.0 35.4 0.00 0.00 0.00 36 1012.0
20260504224004 25 212 8.0 22.5 0.00 0.00 0.00 37 1012.0
20260504222504 25 228 8.0 25.7 0.00 0.00 0.00 36 1011.9
20260504222004 26 227 9.7 29.0 0.00 0.00 0.00 35 1011.9
20260504221503 26 213 8.0 29.0 0.00 0.00 0.00 35 1011.9
20260504221004 26 194 9.7 20.9 0.00 0.00 0.00 36 1012.0
20260504220004 26 192 8.0 27.4 0.00 0.00 0.00 35 1011.9
20260504215503 26 205 9.7 20.9 0.00 0.00 0.00 35 1012.0
20260504215003 26 204 8.0 20.9 0.00 0.00 0.00 34 1011.9
20260504214003 26 214 8.0 19.3 0.00 0.00 0.00 36 1012.0
20260504213004 26 194 9.7 27.4 0.00 0.00 0.00 35 1012.2
20260504212003 26 199 9.7 24.1 0.00 0.00 0.00 34 1012.1
20260504211504 26 218 8.0 24.1 0.00 0.00 0.00 35 1012.1
20260504211004 26 227 8.0 20.9 0.00 0.00 0.00 35 1012.1
20260504210004 26 224 8.0 22.5 0.00 0.00 0.00 34 1012.2
20260504205504 26 184 8.0 22.5 0.00 0.00 0.00 35 1012.2
20260504205004 26 173 9.7 22.5 0.00 0.00 0.00 35 1012.2
20260504204503 26 184 9.7 22.5 0.00 0.00 0.00 35 1012.3
20260504204004 26 193 8.0 19.3 0.00 0.00 0.00 34 1012.4
20260504203503 26 190 8.0 19.3 0.00 0.00 0.00 35 1012.3
20260504203004 26 191 8.0 19.3 0.00 0.00 0.00 35 1012.3
20260504202004 26 237 8.0 19.3 0.00 0.00 0.00 35 1012.3
20260504201504 26 242 6.4 24.1 0.00 0.00 0.00 35 1012.3
20260504201004 26 213 8.0 24.1 0.00 0.00 0.00 35 1012.4
20260504200504 26 204 9.7 24.1 0.00 0.00 0.00 34 1012.4
20260504195504 26 195 9.7 22.5 0.00 0.00 0.00 34 1012.5
20260504195004 25 207 9.7 24.1 0.00 0.00 0.00 36 1012.4
20260504194004 26 225 8.0 20.9 0.00 0.00 0.00 35 1012.7
20260504193503 25 238 9.7 25.7 0.00 0.00 0.00 36 1012.8
20260504192003 25 225 9.7 20.9 0.00 0.00 0.00 36 1012.9
20260504191503 25 232 9.7 24.1 0.00 0.00 0.00 36 1013.0
20260504191004 25 212 9.7 24.1 0.00 0.00 0.00 36 1013.1
20260504190504 25 226 9.7 22.5 0.00 0.00 0.00 38 1013.1
20260504190004 25 234 6.4 22.5 0.00 0.00 0.00 38 1013.3
20260504185504 25 207 6.4 14.5 0.00 0.00 0.00 38 1013.3
20260504185003 25 230 8.0 19.3 0.00 0.00 0.00 39 1013.4
20260504184504 25 252 9.7 24.1 0.00 0.00 0.00 39 1013.3
20260504184005 25 254 9.7 24.1 0.00 0.00 0.00 39 1013.5
20260504183504 25 257 9.7 22.5 0.00 0.00 0.00 39 1013.5
20260504182504 25 187 9.7 27.4 0.00 0.00 0.00 39 1013.8
20260504182004 24 232 8.0 25.7 0.00 0.00 0.00 40 1013.8
20260504181504 24 215 9.7 25.7 0.00 0.00 0.00 39 1014.0
20260504181004 25 193 8.0 19.3 0.00 0.00 0.00 39 1013.9
20260504180504 24 217 9.7 24.1 0.00 0.00 0.00 41 1014.0
20260504175503 24 211 8.0 30.6 0.00 0.00 0.00 38 1014.0
20260504175004 24 186 8.0 22.5 0.00 0.00 0.00 40 1014.0
20260504174505 23 197 9.7 22.5 0.00 0.00 0.00 40 1014.0
20260504174003 23 212 9.7 22.5 0.00 0.00 0.00 39 1014.1
20260504173004 24 212 8.0 22.5 0.00 0.00 0.00 40 1014.1
20260504172503 24 198 9.7 32.2 0.00 0.00 0.00 41 1014.3
20260504172004 24 208 8.0 32.2 0.00 0.00 0.00 40 1014.3
20260504171504 24 218 6.4 22.5 0.00 0.00 0.00 39 1014.3
20260504171004 24 200 6.4 16.1 0.00 0.00 0.00 40 1014.4
20260504170504 23 236 8.0 22.5 0.00 0.00 0.00 41 1014.4
20260504151003 21 16 8.0 20.9 0.00 0.00 0.00 50 1015.5
20260504150503 21 14 8.0 22.5 0.00 0.00 0.00 52 1015.5
20260504141003 18 15 6.4 17.7 0.00 0.00 0.00 59 1015.7
20260504140504 18 15 4.8 17.7 0.00 0.00 0.00 60 1015.8